Regional Weather Roundup
Issued by NWS Goodland, KS

Home | Current Version | Previous Version | Graphics & Text | Print | Product List | Glossary On
Versions: 1 2 3 4 5 6 7 8 9 10 11 12 13 14 15 16 17 18 19 20 21 22 23 24 25 26 27 28 29 30 31 32 33 34 35 36 37 38 39 40 41 42 43 44 45 46 47 48 49 50
000
ASUS43 KGLD 290008
RWRGLD

GOODLAND FORECAST AREA HOURLY WEATHER ROUNDUP
NATIONAL WEATHER SERVICE GOODLAND KS
600 PM MDT SAT MAY 28 2016

...OFFICIAL OBSERVATIONS...

CITY           SKY/WX    TMP DP  RH WIND       PRES   REMARKS
GOODLAND KS    SUNNY     75  42  30 W7        29.98S
HILL CITY KS   SUNNY     80  47  31 VRB5      29.95R
IMPERIAL NEB   CLOUDY    73  46  38 SW5       29.95S
MCCOOK NEB     SUNNY     76  50  40 SW5       29.94S
AKRON CO       CLOUDY    69  43  38 CALM      30.02R
BURLINGTON CO  SUNNY     73  41  31 S12       30.02R
LIMON CO       CLOUDY    63  44  50 S14       30.08S
$$

...UNOFFICIAL OBSERVATIONS...

CITY           SKY/WX    TMP DP  RH WIND       PRES   REMARKS
GOVE KS          N/A     77  32  19 MISG        N/A
LENORA KS        N/A     75  32  20 MISG        N/A
SHARON SPRINGS   N/A     75  50  41 SW5         N/A
TRIBUNE KS     SUNNY     77  45  31 CALM      30.02S
KIT CARSON CO    N/A     71  44  38 CALM        N/A
YUMA CO          N/A     71  50  46 NE6         N/A
$$



USA.gov is the U.S. government's official web portal to all federal, state and local government web resources and services.